User: anonymous   Login
Location: Caltech
(34.1382°N, 118.1253°W)
Time: 08:47:16
(UTC-07:00)
Language:

Cosmos 1939 - Orbit

View from above orbital plane
View from above orbital plane
View from above satellite
View from above satellite

Ground track
Ground track

The orbit data is extracted from the following two-line orbital elements,

1 19045U 88032A   14296.12031130  .01026875  62371-3  11613-2 0   270
2 19045 097.2020 009.1546 0006013 258.9014 101.1677 16.09377314460717
Epoch (UTC): 23 October 2014 02:53:14
Eccentricity: 0.0006013
inclination: 97.2020°
perigee height: 244 km
apogee height: 252 km
right ascension of ascending node: 9.1546°
argument of perigee: 258.9014°
revolutions per day: 16.09377314
mean anomaly at epoch: 101.1677°
orbit number at epoch: 46071

The dashed part of the orbit path shows where the satellite is in the earth's shadow,  

DLR